TimePST,TemperatureF,Dew PointF,Humidity,Sea Level PressureIn,VisibilityMPH,Wind Direction,Wind SpeedMPH,Gust SpeedMPH,PrecipitationIn,Events,Conditions,WindDirDegrees,DateUTC
12:14 AM,51.8,50.0,94,30.17,3.0,Calm,Calm,-,N/A,,Overcast,0,2012-12-17 08:14:00
12:53 AM,52.0,50.0,93,30.17,5.0,Calm,Calm,-,N/A,,Overcast,0,2012-12-17 08:53:00
1:53 AM,53.1,50.0,89,30.17,5.0,Calm,Calm,-,N/A,,Overcast,0,2012-12-17 09:53:00
2:53 AM,53.1,50.0,89,30.18,4.0,Calm,Calm,-,N/A,,Overcast,0,2012-12-17 10:53:00
3:40 AM,53.6,51.8,94,30.17,3.0,Calm,Calm,-,N/A,,Overcast,0,2012-12-17 11:40:00
3:53 AM,53.1,50.0,89,30.16,3.0,Calm,Calm,-,N/A,,Overcast,0,2012-12-17 11:53:00
4:17 AM,51.8,50.0,94,30.16,2.5,Calm,Calm,-,N/A,,Overcast,0,2012-12-17 12:17:00
4:53 AM,52.0,50.0,93,30.16,2.0,Calm,Calm,-,N/A,,Overcast,0,2012-12-17 12:53:00
5:53 AM,52.0,50.0,93,30.16,2.5,Calm,Calm,-,N/A,,Overcast,0,2012-12-17 13:53:00
6:53 AM,53.1,50.0,89,30.17,3.0,SE,3.5,-,N/A,,Overcast,140,2012-12-17 14:53:00
7:53 AM,54.0,51.1,90,30.17,3.0,Calm,Calm,-,N/A,,Mostly Cloudy,0,2012-12-17 15:53:00
8:53 AM,55.0,51.1,86,30.17,3.0,Calm,Calm,-,N/A,,Overcast,0,2012-12-17 16:53:00
9:53 AM,57.0,52.0,83,30.18,3.0,WSW,3.5,-,N/A,,Haze,240,2012-12-17 17:53:00
10:53 AM,60.1,50.0,69,30.15,10.0,Calm,Calm,-,N/A,,Mostly Cloudy,0,2012-12-17 18:53:00
11:53 AM,59.0,48.9,69,30.11,10.0,Calm,Calm,-,N/A,,Mostly Cloudy,0,2012-12-17 19:53:00
12:53 PM,61.0,50.0,67,30.07,10.0,Calm,Calm,-,N/A,,Mostly Cloudy,0,2012-12-17 20:53:00
1:53 PM,62.1,50.0,65,30.05,10.0,WNW,3.5,-,N/A,,Mostly Cloudy,300,2012-12-17 21:53:00
4:53 PM,59.0,50.0,72,30.03,10.0,WSW,4.6,-,N/A,,Overcast,250,2012-12-18 00:53:00
5:53 PM,57.9,52.0,81,30.04,9.0,SW,6.9,-,N/A,,Overcast,230,2012-12-18 01:53:00
6:53 PM,57.0,51.1,81,30.05,7.0,SW,8.1,-,N/A,,Overcast,230,2012-12-18 02:53:00
7:53 PM,55.9,50.0,80,30.05,7.0,West,5.8,-,N/A,,Overcast,260,2012-12-18 03:53:00
8:00 PM,55.4,50.0,82,30.05,7.0,West,6.9,-,N/A,,Overcast,270,2012-12-18 04:00:00
8:53 PM,55.0,48.9,80,30.05,8.0,West,4.6,-,N/A,,Overcast,280,2012-12-18 04:53:00
9:28 PM,53.6,48.2,82,30.05,8.0,West,5.8,-,N/A,,Mostly Cloudy,260,2012-12-18 05:28:00
9:53 PM,54.0,48.9,83,30.04,8.0,SW,4.6,-,N/A,,Overcast,230,2012-12-18 05:53:00
10:10 PM,53.6,48.2,82,30.04,8.0,SW,3.5,-,N/A,,Overcast,230,2012-12-18 06:10:00
10:53 PM,55.0,48.9,80,30.04,8.0,Calm,Calm,-,N/A,,Overcast,0,2012-12-18 06:53:00
11:53 PM,53.1,48.0,83,30.02,7.0,West,3.5,-,N/A,,Mostly Cloudy,260,2012-12-18 07:53:00